Tracking 35275 objects as of 9-Sep-2026
HD Live streaming from Space Station
objects crossing your sky now

STARLINK-33790

Track STARLINK-33790 now!
10-day predictions
STARLINK-33790 is classified as:


NORAD ID: 64029
Int'l Code: 2025-102H
Launch date: May 16, 2025
Source: United States (US)
Launch site: AIR FORCE WESTERN TEST RANGE (AFWTR)
Your satellite tracking list
Your tracking list is empty




NASA's NSSDC Master Catalog

Two Line Element Set (TLE):
1 64029U 25102H   26251.46243056  .00016919  00000-0  59137-3 0  9991
2 64029  70.0005  12.6618 0003544 273.8160  86.2610 15.29596505 73406
Source of the keplerian elements: AFSPC